Regional Weather Roundup
Issued by NWS

Home | Current Version | Previous Version | Text Only | Print | Product List | Glossary Off
Versions: 1 2 3 4 5 6 7 8 9 10 11 12 13 14 15 16 17 18 19 20 21 22 23 24 25 26 27 28 29 30 31 32 33 34 35 36 37 38 39 40 41 42 43 44 45 46 47 48 49 50

000
ASUS43 KLSX 301407
RWRMO
STLRWRMO ALL

WEATHER SUMMARY FOR MISSOURI
NATIONAL WEATHER SERVICE SPRINGFIELD MO
900 AM CDT SUN APR 30 2017

NOTE: "FAIR" INDICATES FEW OR NO CLOUDS BELOW 12,000 FEET WITH NO
       SIGNIFICANT WEATHER AND/OR OBSTRUCTIONS TO VISIBILITY.
       CURRENT SKY AND/OR WEATHER CONDITIONS ARE NOT AVAILABLE FOR
       CHILLICOTHE AND FARMINGTON.

MOZ001>031-035>038-043-044-053-054-301500-
...NORTHERN AND WESTERN MISSOURI...

CITY           SKY/WX    TMP DP  RH WIND       PRES   REMARKS
KANSAS CTY INT LGT RAIN  45  44  97 NE24G32   29.52F FOG
KANSAS C DTWN  MIX PCPN N/A N/A N/A E13G23    29.53F
LEE`S SUMMIT   LGT RAIN  47  47 100 NE18G25   29.53F FOG
ST JOSEPH      CLOUDY    44  43  96 NE16G28   29.58F
CHILLICOTHE      N/A     45  44  97 NE15G22   29.68F
KIRKSVILLE     CLOUDY    45  32  60 NE9G17    29.75R HAZE

$$
MOZ066>068-077>081-088>096-101>105-301500-
...SOUTHWEST MISSOURI...

CITY           SKY/WX    TMP DP  RH WIND       PRES   REMARKS
SPRINGFIELD    CLOUDY    64  63  96 SE21G30   29.54F
JOPLIN         CLOUDY    55  55 100 SW13      29.57R FOG
BRANSON        CLOUDY    63  63 100 SE12G21   29.60F

$$
MOZ032>034-039>042-045>050-055>058-069>072-301500-
...CENTRAL MISSOURI...

CITY           SKY/WX    TMP DP  RH WIND       PRES   REMARKS
COLUMBIA       TSTM      58  58 100 SE12      29.64F
JEFFERSON CITY TSTM      62  59  90 E12       29.63F FOG
ROLLA          RAIN      62  32  32 E18G30    29.63F
SEDALIA        LGT RAIN  63  63 100 SE15      29.59S
WHITEMAN AFB   HVY RAIN  51  51 100 N7        29.56F FOG
OSAGE BEACH    CLOUDY    63  61  93 SE10      29.61S

$$
MOZ051-052-059>065-301500-
...EAST CENTRAL MISSOURI...

CITY           SKY/WX    TMP DP  RH WIND       PRES   REMARKS
ST LOUIS INTL  RAIN      62  59  90 S22       29.73R
SPIRIT OF STL  RAIN      61  60  97 SE14      29.69R FOG
ST CHARLES     LGT RAIN  54  54 100 SE7       29.72S

$$
MOZ072>076-082>087-097>100-106>115-301500-
...SOUTH CENTRAL AND SOUTHEAST MISSOURI...

CITY           SKY/WX    TMP DP  RH WIND       PRES   REMARKS
CAPE GIRARDEAU RAIN      64  62  93 SE13      29.79F FOG
FARMINGTON     HVY RAIN  63  61  94 SE5       29.77F FOG
POPLAR BLUFF   LGT RAIN  65  64  97 SE13      29.75F

$$



USA.gov is the U.S. government's official web portal to all federal, state and local government web resources and services.